Weather History for North Platte, NE

Change the Weather History Date:

Friday, November 16, 2012

  Actual Average Record
Temperature  
Mean Temperature 38 °F 35 °F  
Max Temperature 57 °F 50 °F 80 °F (1941)
Min Temperature 19 °F 21 °F -8 °F (1875)
Degree Days  
Heating Degree Days 27 30  
Month to date heating degree days 413 416  
Since 1 July heating degree days 1114 1085  
Cooling Degree Days 0 0  
Month to date cooling degree days 0 0  
Year to date cooling degree days 1245 768  
Moisture  
Dew Point 26 °F    
Average Humidity 61    
Maximum Humidity 91    
Minimum Humidity 30    
Precipitation  
Precipitation 0.00 in 0.02 in 0.59 in (1991)
Month to date precipitation T 0.40  
Year to date precipitation 9.62 19.58  
Snow  
Snow 0.00 in 0.10 in 8.90 in (1886)
Month to date snowfall T 1.9  
Since 1 July snowfall 2.2 4.2  
Since 1 September snowfall 2.2 4.2  
Snow Depth 0.00 in    
Sea Level Pressure  
Sea Level Pressure 30.30 in    
Wind  
Wind Speed 9 mph (SSE)    
Max Wind Speed 22 mph    
Max Gust Speed 28 mph    
Visibility 10 miles    
Events      
T = Trace of Precipitation, MM = Missing Value Source: NWS Daily Summary

Daily Weather History Graph

Daily Weather History Graph

Search for Another Location

Airport:

Trip Planner

Search our weather history database for the weather conditions in past years. The results will help you decide how hot, cold, wet, or windy it might be!

Date:

Astronomy

Nov. 16, 2012 Rise Set
Actual Time 7:32 AM CST 5:22 PM CST
Civil Twilight 7:02 AM CST 5:52 PM CST
Nautical Twilight 6:29 AM CST 6:25 PM CST
Astronomical Twilight 5:56 AM CST 6:58 PM CST
Moon 10:28 AM CST (11/16) 8:23 PM CST (11/16)
Length of Visible Light 10h 49m
Length of Day
9h 50m
Waxing Crescent, 12% of the Moon is Illuminated
Nov 16
Waxing Crescent
Nov 20
First Quarter
Nov 28
Full
Dec 6
Last Quarter
Dec 13
New

Hourly Weather History & Observations

Time (CST) Temp. Windchill Dew Point Humidity Pressure Visibility Wind Dir Wind Speed Gust Speed Precip Events Conditions
12:53 AM 24.1 °F - 19.0 °F 81% 30.45 in 10.0 mi Calm Calm - N/A   Clear
1:53 AM 21.0 °F 13.4 °F 17.1 °F 85% 30.43 in 10.0 mi ESE 5.8 mph - N/A   Clear
2:53 AM 21.0 °F 13.4 °F 17.1 °F 85% 30.43 in 10.0 mi ESE 5.8 mph - N/A   Clear
3:53 AM 19.9 °F 13.4 °F 17.1 °F 89% 30.41 in 10.0 mi East 4.6 mph - N/A   Clear
4:53 AM 21.0 °F 13.4 °F 18.0 °F 88% 30.41 in 10.0 mi ESE 5.8 mph - N/A   Clear
5:53 AM 21.9 °F 15.7 °F 18.0 °F 85% 30.43 in 10.0 mi East 4.6 mph - N/A   Clear
6:53 AM 24.1 °F 16.0 °F 19.9 °F 84% 30.41 in 10.0 mi East 6.9 mph - N/A   Clear
7:53 AM 25.0 °F 18.1 °F 21.0 °F 85% 30.41 in 10.0 mi East 5.8 mph - N/A   Clear
8:53 AM 34.0 °F - 28.0 °F 79% 30.41 in 10.0 mi Calm Calm - N/A   Clear
9:53 AM 39.0 °F - 28.9 °F 67% 30.40 in 10.0 mi Calm Calm - N/A   Clear
10:53 AM 46.0 °F 40.6 °F 28.0 °F 50% 30.37 in 10.0 mi South 11.5 mph - N/A   Clear
11:53 AM 50.0 °F - 27.0 °F 41% 30.32 in 10.0 mi South 18.4 mph 24.2 mph N/A   Clear
12:53 PM 54.0 °F - 27.0 °F 35% 30.28 in 10.0 mi South 17.3 mph 25.3 mph N/A   Clear
1:53 PM 55.0 °F - 25.0 °F 31% 30.25 in 10.0 mi South 18.4 mph 25.3 mph N/A   Clear
2:53 PM 55.9 °F - 26.1 °F 32% 30.21 in 10.0 mi South 13.8 mph 25.3 mph N/A   Clear
3:53 PM 57.0 °F - 28.0 °F 33% 30.20 in 10.0 mi South 16.1 mph - N/A   Clear
4:53 PM 54.0 °F - 28.9 °F 38% 30.20 in 10.0 mi South 12.7 mph - N/A   Clear
5:53 PM 48.0 °F - 28.0 °F 46% 30.21 in 10.0 mi SSE 6.9 mph - N/A   Clear
6:53 PM 46.9 °F - 30.0 °F 52% 30.20 in 10.0 mi SE 8.1 mph - N/A   Clear
7:53 PM 46.0 °F 41.9 °F 30.9 °F 56% 30.20 in 10.0 mi SE 8.1 mph - N/A   Clear
8:53 PM 45.0 °F 41.8 °F 33.1 °F 63% 30.17 in 10.0 mi SSE 5.8 mph - N/A   Clear
9:53 PM 46.9 °F - 34.0 °F 61% 30.16 in 10.0 mi SSE 9.2 mph - N/A   Clear
10:53 PM 46.0 °F 39.9 °F 34.0 °F 63% 30.14 in 10.0 mi South 13.8 mph 20.7 mph N/A   Clear
11:53 PM 45.0 °F 39.3 °F 34.0 °F 65% 30.13 in 10.0 mi South 11.5 mph - N/A   Clear